TimeEST,TemperatureF,Dew PointF,Humidity,Sea Level PressureIn,VisibilityMPH,Wind Direction,Wind SpeedMPH,Gust SpeedMPH,PrecipitationIn,Events,Conditions,WindDirDegrees,DateUTC
12:21 AM,28.4,24.8,86,29.94,4.0,Calm,Calm,-,N/A,,Overcast,0,2013-02-16 05:21:00
12:53 AM,28.9,27.0,92,29.94,5.0,Calm,Calm,-,N/A,,Overcast,0,2013-02-16 05:53:00
1:53 AM,28.9,27.0,92,29.94,5.0,Calm,Calm,-,N/A,,Overcast,0,2013-02-16 06:53:00
2:53 AM,30.0,27.0,88,29.93,5.0,Calm,Calm,-,N/A,,Overcast,0,2013-02-16 07:53:00
3:53 AM,30.0,28.0,92,29.93,5.0,Calm,Calm,-,N/A,,Overcast,0,2013-02-16 08:53:00
4:53 AM,30.9,28.9,92,29.92,6.0,Calm,Calm,-,N/A,,Overcast,0,2013-02-16 09:53:00
5:53 AM,30.9,28.9,92,29.94,6.0,Calm,Calm,-,N/A,,Overcast,0,2013-02-16 10:53:00
6:53 AM,34.0,30.0,85,29.94,10.0,Variable,3.5,-,N/A,,Overcast,0,2013-02-16 11:53:00
7:49 AM,33.8,30.2,87,29.94,10.0,Variable,4.6,-,N/A,,Overcast,0,2013-02-16 12:49:00
7:53 AM,34.0,30.0,85,29.94,10.0,Variable,5.8,-,N/A,,Overcast,0,2013-02-16 12:53:00
8:53 AM,34.0,28.9,82,29.94,9.0,Variable,3.5,-,0.00,Snow,Light Snow,0,2013-02-16 13:53:00
9:13 AM,33.8,28.4,81,29.93,2.5,Variable,4.6,-,0.00,Snow,Light Snow,0,2013-02-16 14:13:00
9:29 AM,33.8,30.2,87,29.94,1.5,Calm,Calm,-,0.00,Snow,Light Snow,0,2013-02-16 14:29:00
9:36 AM,33.8,30.2,87,29.94,1.2,NNE,4.6,-,0.00,Snow,Light Snow,20,2013-02-16 14:36:00
9:42 AM,33.8,30.2,87,29.94,2.0,Calm,Calm,-,0.00,Snow,Light Snow,0,2013-02-16 14:42:00
9:51 AM,33.8,30.2,87,29.94,2.0,Variable,3.5,-,0.00,Snow,Light Snow,0,2013-02-16 14:51:00
9:53 AM,33.1,30.0,89,29.94,2.0,Calm,Calm,-,0.00,Snow,Light Snow,0,2013-02-16 14:53:00
10:28 AM,33.8,30.2,87,29.94,1.8,Variable,3.5,-,0.01,Snow,Light Snow,0,2013-02-16 15:28:00
10:41 AM,33.8,30.2,87,29.93,2.5,Calm,Calm,-,0.01,Snow,Light Snow,0,2013-02-16 15:41:00
10:50 AM,33.8,30.2,87,29.93,3.0,Variable,3.5,-,0.01,Snow,Light Snow,0,2013-02-16 15:50:00
10:53 AM,34.0,30.0,85,29.94,3.0,Variable,4.6,-,0.01,Snow,Light Snow,0,2013-02-16 15:53:00
11:07 AM,33.8,30.2,87,29.92,2.0,Variable,4.6,-,0.00,Snow,Light Snow,0,2013-02-16 16:07:00
11:19 AM,35.6,30.2,81,29.92,5.0,Calm,Calm,-,0.00,Snow,Light Snow,0,2013-02-16 16:19:00
11:53 AM,35.1,30.0,82,29.91,10.0,Variable,3.5,-,0.00,,Overcast,0,2013-02-16 16:53:00
12:45 PM,35.6,30.2,81,29.89,10.0,Variable,3.5,-,N/A,,Overcast,0,2013-02-16 17:45:00
12:53 PM,36.0,30.0,79,29.90,10.0,Calm,Calm,-,N/A,,Overcast,0,2013-02-16 17:53:00
1:53 PM,35.1,28.9,78,29.89,10.0,Variable,3.5,-,N/A,,Overcast,0,2013-02-16 18:53:00
2:53 PM,35.1,28.0,76,29.88,10.0,Variable,3.5,-,N/A,,Overcast,0,2013-02-16 19:53:00
3:49 PM,33.8,28.4,81,29.88,2.5,Calm,Calm,-,0.00,Snow,Light Snow,0,2013-02-16 20:49:00
3:53 PM,34.0,28.9,82,29.88,1.8,Variable,3.5,-,0.00,Snow,Light Snow,0,2013-02-16 20:53:00
4:01 PM,33.8,28.4,81,29.88,1.0,Calm,Calm,-,0.00,Snow,Light Snow,0,2013-02-16 21:01:00
4:12 PM,33.8,30.2,87,29.87,1.0,Calm,Calm,-,0.00,Snow,Light Snow,0,2013-02-16 21:12:00
4:24 PM,33.8,28.4,81,29.87,1.8,Variable,3.5,-,0.00,Snow,Light Snow,0,2013-02-16 21:24:00
4:34 PM,33.8,28.4,81,29.87,2.0,Variable,3.5,-,0.00,Snow,Light Snow,0,2013-02-16 21:34:00
4:48 PM,33.8,28.4,81,29.87,4.0,Calm,Calm,-,0.00,Snow,Light Snow,0,2013-02-16 21:48:00
4:53 PM,32.0,28.9,88,29.87,5.0,Calm,Calm,-,0.00,Snow,Light Snow,0,2013-02-16 21:53:00
5:53 PM,32.0,28.0,85,29.87,4.0,Calm,Calm,-,0.00,Snow,Light Snow,0,2013-02-16 22:53:00
6:02 PM,32.0,28.4,87,29.86,2.5,Calm,Calm,-,0.00,Snow,Light Snow,0,2013-02-16 23:02:00
6:34 PM,32.0,28.4,87,29.86,3.0,Calm,Calm,-,0.00,Snow,Light Snow,0,2013-02-16 23:34:00
6:53 PM,30.9,27.0,85,29.86,4.0,Variable,4.6,-,0.00,Snow,Light Snow,0,2013-02-16 23:53:00
7:45 PM,30.2,26.6,86,29.86,2.0,North,4.6,-,0.00,Snow,Light Snow,360,2013-02-17 00:45:00
7:53 PM,30.0,26.1,85,29.86,1.5,Variable,4.6,-,0.00,Snow,Light Snow,0,2013-02-17 00:53:00
8:01 PM,30.2,26.6,86,29.85,1.2,Variable,4.6,-,0.00,Snow,Light Snow,0,2013-02-17 01:01:00
8:29 PM,30.2,26.6,86,29.84,1.5,Calm,Calm,-,0.00,Snow,Light Snow,0,2013-02-17 01:29:00
8:53 PM,28.9,25.0,85,29.83,2.0,Variable,6.9,-,0.00,Snow,Light Snow,0,2013-02-17 01:53:00
9:00 PM,28.4,24.8,86,29.83,2.5,Variable,4.6,-,0.00,Snow,Light Snow,0,2013-02-17 02:00:00
9:07 PM,28.4,24.8,86,29.83,4.0,North,8.1,-,0.00,Snow,Light Snow,10,2013-02-17 02:07:00
9:53 PM,28.0,21.9,78,29.82,10.0,Variable,5.8,-,0.00,,Overcast,0,2013-02-17 02:53:00
10:53 PM,27.0,21.0,78,29.80,7.0,Variable,4.6,-,0.00,Snow,Light Snow,0,2013-02-17 03:53:00
11:53 PM,27.0,19.0,72,29.78,9.0,Variable,4.6,-,0.00,Snow,Light Snow,0,2013-02-17 04:53:00